Surface/Precipitation History
04/29/2016 05:16  to  4/30/2016 05:16
Change End Date:
Date/Time
(MDT)
Sf
Temp Chem Water Layer Surface Precipitation
Sfc Pvt Sub Frz Factor Pct Dpth DpthThk IcePct Cond Salin FI Type Intens Accum Rate
04/30/2016 05:15 Error 38.1F - 51F - - - - - - 0 mhos 3 - None None 0.02 in 0.0 iph
04/30/2016 05:06 Error 38.3F - 51F - - - - - - 0 mhos 4 - None None 0.02 in 0.0 iph
04/30/2016 05:00 Error 38.7F - 51F - - - - - - 0 mhos 5 - None None 0.02 in 0.0 iph
04/30/2016 04:56 Error 38.7F - 51F - - - - - - 0 mhos 6 - None None 0.02 in 0.0 iph
04/30/2016 04:46 Error 39.2F - 51F - - - - - - 0 mhos 9 - None None 0.02 in 0.0 iph
04/30/2016 04:45 Error 39.2F - 51F - - - - - - 0 mhos 10 - None None 0.02 in 0.0 iph
04/30/2016 04:36 Error 39.4F - 51F - - - - - - 0 mhos 11 - None None 0.02 in 0.0 iph
04/30/2016 04:30 Error 39.6F - 51F - - - - - - 0 mhos 12 - None None 0.02 in 0.0 iph
04/30/2016 04:26 Error 39.7F - 51F - - - - - - 0 mhos 13 - None None 0.02 in 0.0 iph
04/30/2016 04:16 Error 40.1F - 51F - - - - - - 0 mhos 15 - None None 0.02 in 0.0 iph
04/30/2016 04:15 Error 39.9F - 51F - - - - - - 0 mhos 16 - None None 0.02 in 0.0 iph
04/30/2016 04:06 Error 40.1F - 51F - - - - - - 0 mhos 17 - None None 0.02 in 0.0 iph
04/30/2016 04:00 Error 40.3F - 51F - - - - - - 0 mhos 18 - None None 0.02 in 0.0 iph
04/30/2016 03:56 Error 40.6F - 52F - - - - - - 0 mhos 18 - None None 0.02 in 0.0 iph
04/30/2016 03:46 Error 40.6F - 52F - - - - - - 0 mhos 20 - None None 0.02 in 0.0 iph
Date/Time
(MDT)
Sf
Temp Chem Water Layer Surface Precipitation
Sfc Pvt Sub Frz Factor Pct Dpth DpthThk IcePct Cond Salin FI Type Intens Accum Rate
04/30/2016 03:45 Error 40.6F - 52F - - - - - - 0 mhos 20 - None None 0.02 in 0.0 iph
04/30/2016 03:36 Error 41.0F - 52F - - - - - - 0 mhos 21 - None None 0.02 in 0.0 iph
04/30/2016 03:30 Error 41.2F - 52F - - - - - - 0 mhos 22 - None None 0.02 in 0.0 iph
04/30/2016 03:26 Error 41.2F - 52F - - - - - - 0 mhos 22 - None None 0.02 in 0.0 iph
04/30/2016 03:16 Error 41.5F - 52F - - - - - - 0 mhos 23 - None None 0.02 in 0.0 iph
04/30/2016 03:15 Error 41.4F - 52F - - - - - - 0 mhos 23 - None None 0.02 in 0.0 iph
04/30/2016 03:06 Error 41.4F - 52F - - - - - - 0 mhos 23 - None None 0.02 in 0.0 iph
04/30/2016 03:00 Error 41.5F - 52F - - - - - - 0 mhos 23 - None None 0.02 in 0.0 iph
04/30/2016 02:55 Error 41.4F - 52F - - - - - - 0 mhos 24 - None None 0.02 in 0.0 iph
04/30/2016 02:45 Error 41.5F - 52F - - - - - - 0 mhos 24 - None None 0.02 in 0.0 iph
04/30/2016 02:45 Error 41.5F - 52F - - - - - - 0 mhos 24 - None None 0.02 in 0.0 iph
04/30/2016 02:35 Error 41.5F - 52F - - - - - - 0 mhos 22 - None None 0.02 in 0.0 iph
04/30/2016 02:30 Error 41.4F - 52F - - - - - - 0 mhos 22 - None None 0.02 in 0.0 iph
04/30/2016 02:25 Error 41.5F - 52F - - - - - - 0 mhos 22 - None None 0.02 in 0.0 iph
04/30/2016 02:15 Error 41.5F - 52F - - - - - - 0 mhos 18 - None None 0.02 in 0.0 iph
Date/Time
(MDT)
Sf
Temp Chem Water Layer Surface Precipitation
Sfc Pvt Sub Frz Factor Pct Dpth DpthThk IcePct Cond Salin FI Type Intens Accum Rate
04/30/2016 02:15 Error 41.4F - 52F - - - - - - 0 mhos 19 - None None 0.02 in 0.0 iph
04/30/2016 02:05 Error 41.5F - 52F - - - - - - 0 mhos 17 - None None 0.02 in 0.0 iph
04/30/2016 02:00 Error 41.7F - 52F - - - - - - 0 mhos 15 - None None 0.02 in 0.0 iph
04/30/2016 01:55 Error 41.9F - 52F - - - - - - 0 mhos 13 - None None 0.02 in 0.0 iph
04/30/2016 01:45 Error 41.9F - 52F - - - - - - 0 mhos 28 - None None 0.02 in 0.0 iph
04/30/2016 01:45 Error 41.9F - 52F - - - - - - 0 mhos 28 - None None 0.02 in 0.0 iph
04/30/2016 01:35 Error 41.9F - 52F - - - - - - 0 mhos 26 - None None 0.02 in 0.0 iph
04/30/2016 01:30 Error 41.9F - 52F - - - - - - 0 mhos 24 - None None 0.02 in 0.0 iph
04/30/2016 01:25 Error 42.1F - 52F - - - - - - 0 mhos 22 - None None 0.02 in 0.0 iph
04/30/2016 01:15 Error 42.3F - 52F - - - - - - 0 mhos 21 - None None 0.02 in 0.0 iph
04/30/2016 01:15 Error 42.4F - 52F - - - - - - 0 mhos 20 - None None 0.02 in 0.0 iph
04/30/2016 01:05 Error 42.6F - 52F - - - - - - 0 mhos 19 - None None 0.02 in 0.0 iph
04/30/2016 01:00 Error 43.0F - 52F - - - - - - 0 mhos 17 - None None 0.02 in 0.0 iph
04/30/2016 00:55 Error 43.0F - 52F - - - - - - 0 mhos 15 - None None 0.02 in 0.0 iph
04/30/2016 00:45 Error 43.2F - 52F - - - - - - 0 mhos 14 - None None 0.02 in 0.0 iph
Date/Time
(MDT)
Sf
Temp Chem Water Layer Surface Precipitation
Sfc Pvt Sub Frz Factor Pct Dpth DpthThk IcePct Cond Salin FI Type Intens Accum Rate
04/30/2016 00:45 Error 43.2F - 52F - - - - - - 0 mhos 15 - None None 0.02 in 0.0 iph
04/30/2016 00:35 Error 43.7F - 52F - - - - - - 0 mhos 7 - None None 0.02 in 0.0 iph
04/30/2016 00:30 Error 43.3F - 52F - - - - - - 0 mhos 12 - Yes Slight 0.02 in 0.0 iph
04/30/2016 00:25 Error 43.3F - 52F - - - - - - 0 mhos 7 - Yes Slight 0.02 in 0.0 iph
04/30/2016 00:15 Error 43.7F - 52F - - - - - - 0 mhos 21 - None None 0.02 in 0.0 iph
04/30/2016 00:15 Error 43.7F - 52F - - - - - - 0 mhos 21 - None None 0.02 in 0.0 iph
04/30/2016 00:05 Error 44.1F - 52F - - - - - - 0 mhos 10 - Yes Moderate 0.02 in 0.0 iph
04/30/2016 00:00 Error 44.1F - 52F - - - - - - 0 mhos 26 - None None 0.02 in 0.0 iph
04/29/2016 23:55 Error 44.2F - 52F - - - - - - 0 mhos 6 - Yes Moderate 0.02 in 0.0 iph
04/29/2016 23:45 Error 44.1F - 52F - - - - - - 0 mhos 25 - Yes Slight 0.02 in 0.0 iph
04/29/2016 23:45 Error 44.1F - 52F - - - - - - 0 mhos 25 - Yes Slight 0.02 in 0.0 iph
04/29/2016 23:35 Error 44.2F - 52F - - - - - - 0 mhos 24 - Yes Moderate 0.02 in 0.0 iph
04/29/2016 23:30 Error 44.6F - 52F - - - - - - 0 mhos 9 - Yes Moderate 0.02 in 0.0 iph
04/29/2016 23:25 Error 44.4F - 52F - - - - - - 0 mhos 18 - Yes Moderate 0.02 in 0.0 iph
04/29/2016 23:15 Error 44.6F - 52F - - - - - - 0 mhos 15 - Yes Moderate 0.02 in 0.0 iph
Date/Time
(MDT)
Sf
Temp Chem Water Layer Surface Precipitation
Sfc Pvt Sub Frz Factor Pct Dpth DpthThk IcePct Cond Salin FI Type Intens Accum Rate
04/29/2016 23:15 Error 44.6F - 52F - - - - - - 0 mhos 15 - Yes Moderate 0.02 in 0.0 iph
04/29/2016 23:05 Error 44.4F - 52F - - - - - - 0 mhos 33 - Yes Moderate 0.02 in 0.0 iph
04/29/2016 23:00 Error 44.4F - 52F - - - - - - 0 mhos 29 - Yes Slight 0.02 in 0.0 iph
04/29/2016 22:55 Error 44.6F - 52F - - - - - - 0 mhos 25 - Yes Moderate 0.02 in 0.0 iph
04/29/2016 22:45 Error 44.6F - 52F - - - - - - 0 mhos 17 - None None 0.01 in 0.0 iph
04/29/2016 22:45 Error 44.6F - 52F - - - - - - 0 mhos 17 - None None 0.01 in 0.0 iph
04/29/2016 22:35 Error 44.6F - 52F - - - - - - 0 mhos 26 - Yes Moderate 0.01 in 0.0 iph
04/29/2016 22:30 Error 44.6F - 52F - - - - - - 0 mhos 36 - Yes Moderate 0.01 in 0.0 iph
04/29/2016 22:25 Error 44.6F - 52F - - - - - - 0 mhos 37 - Yes Moderate 0.01 in 0.0 iph
04/29/2016 22:15 Error 44.6F - 52F - - - - - - 0 mhos 31 - None None 0.01 in 0.0 iph
04/29/2016 22:15 Error 44.6F - 52F - - - - - - 0 mhos 30 - None None 0.01 in 0.0 iph
04/29/2016 22:05 Error 44.6F - 52F - - - - - - 0 mhos 36 - None None 0.01 in 0.0 iph
04/29/2016 22:00 Error 44.6F - 52F - - - - - - 0 mhos 34 - None None 0.01 in 0.0 iph
04/29/2016 21:55 Error 44.6F - 52F - - - - - - 0 mhos 30 - None None 0.01 in 0.0 iph
04/29/2016 21:45 Error 45.0F - 52F - - - - - - 0 mhos 27 - None None 0.01 in 0.0 iph
Date/Time
(MDT)
Sf
Temp Chem Water Layer Surface Precipitation
Sfc Pvt Sub Frz Factor Pct Dpth DpthThk IcePct Cond Salin FI Type Intens Accum Rate
04/29/2016 21:45 Error 45.0F - 52F - - - - - - 0 mhos 25 - None None 0.01 in 0.0 iph
04/29/2016 21:35 Error 45.3F - 52F - - - - - - 0 mhos 18 - None None 0.01 in 0.0 iph
04/29/2016 21:30 Error 45.3F - 52F - - - - - - 0 mhos 20 - None None 0.01 in 0.0 iph
04/29/2016 21:25 Error 45.7F - 52F - - - - - - 0 mhos 18 - None None 0.01 in 0.0 iph
04/29/2016 21:15 Error 45.9F - 52F - - - - - - 0 mhos 14 - None None 0.01 in 0.0 iph
04/29/2016 21:15 Error 45.9F - 52F - - - - - - 0 mhos 21 - Yes Slight 0.01 in 0.0 iph
04/29/2016 21:04 Error 46.2F - 52F - - - - - - 0 mhos 16 - Yes Slight 0.01 in 0.0 iph
04/29/2016 21:00 Error 46.4F - 52F - - - - - - 0 mhos 18 - Yes Moderate 0.01 in 0.0 iph
04/29/2016 20:54 Error 46.8F - 52F - - - - - - 0 mhos 22 - None None 0.01 in 0.0 iph
04/29/2016 20:45 Error 46.9F - 52F - - - - - - 0 mhos 10 - Rain Slight 0.01 in 0.0 iph
04/29/2016 20:44 Error 46.9F - 52F - - - - - - 0 mhos 16 - Rain Slight 0.01 in 0.0 iph
04/29/2016 20:34 Error 47.1F - 52F - - - - - - 0 mhos 11 - Yes Moderate 0.01 in 0.0 iph
04/29/2016 20:30 Error 47.3F - 52F - - - - - - 0 mhos 12 - Yes Moderate 0.01 in 0.0 iph
04/29/2016 20:24 Error 47.5F - 52F - - - - - - 0 mhos 13 - Yes Moderate 0.01 in 0.0 iph
04/29/2016 20:15 Error 47.8F - 52F - - - - - - 0 mhos 23 - Yes Moderate 0.01 in 0.0 iph
Date/Time
(MDT)
Sf
Temp Chem Water Layer Surface Precipitation
Sfc Pvt Sub Frz Factor Pct Dpth DpthThk IcePct Cond Salin FI Type Intens Accum Rate
04/29/2016 20:14 Error 48.2F - 52F - - - - - - 0 mhos 21 - Yes Moderate 0.01 in 0.0 iph
04/29/2016 20:04 Error 48.4F - 52F - - - - - - 0 mhos 17 - Yes Moderate 0.01 in 0.0 iph
04/29/2016 20:00 Error 48.7F - 52F - - - - - - 0 mhos 13 - Yes Moderate 0.01 in 0.0 iph
04/29/2016 19:54 Error 48.9F - 52F - - - - - - 0 mhos 12 - Yes Moderate 0.01 in 0.0 iph
04/29/2016 19:45 Error 49.3F - 52F - - - - - - 0 mhos 12 - Yes Moderate 0.01 in 0.0 iph
04/29/2016 19:44 Error 49.5F - 52F - - - - - - 0 mhos 17 - Yes Moderate 0.01 in 0.0 iph
04/29/2016 19:34 Error 49.8F - 52F - - - - - - 0 mhos 21 - Yes Moderate 0.01 in 0.0 iph
04/29/2016 19:30 Error 50.2F - 52F - - - - - - 0 mhos 17 - Yes Moderate 0.01 in 0.0 iph
04/29/2016 19:24 Error 50.7F - 52F - - - - - - 0 mhos 14 - Yes Moderate 0.01 in 0.0 iph
04/29/2016 19:15 Error 50.9F - 52F - - - - - - 0 mhos 15 - Yes Moderate 0.01 in 0.0 iph
04/29/2016 19:14 Error 50.9F - 52F - - - - - - 0 mhos 13 - Yes Moderate 0.01 in 0.0 iph
04/29/2016 19:04 Error 52.0F - 52F - - - - - - 0 mhos 3 - Rain Slight 0.01 in 0.0 iph
04/29/2016 19:00 Error 52.2F - 52F - - - - - - 0 mhos 1 - Yes Moderate 0.01 in 0.0 iph
04/29/2016 18:54 Wet 53.2F - 52F 32F 15 0% 0.00 in - 0% 0 mhos 0 - Yes Moderate 0.01 in 0.0 iph
04/29/2016 18:45 Dry 56.3F - 52F - - - - - - 0 mhos 0 - None None 0.01 in 0.0 iph
Date/Time
(MDT)
Sf
Temp Chem Water Layer Surface Precipitation
Sfc Pvt Sub Frz Factor Pct Dpth DpthThk IcePct Cond Salin FI Type Intens Accum Rate
04/29/2016 18:44 Dry 56.5F - 52F - - - - - - 0 mhos 0 - None None 0.01 in 0.0 iph
04/29/2016 18:34 Dry 58.1F - 52F - - - - - - 0 mhos 0 - None None 0.01 in 0.0 iph
04/29/2016 18:30 Dry 59.0F - 52F - - - - - - 0 mhos 0 - None None 0.01 in 0.0 iph
04/29/2016 18:24 Dry 59.5F - 52F - - - - - - 0 mhos 0 - None None 0.01 in 0.0 iph
04/29/2016 18:15 Dry 60.1F - 52F - - - - - - 0 mhos 0 - None None 0.01 in 0.0 iph
04/29/2016 18:14 Dry 60.4F - 52F - - - - - - 0 mhos 0 - None None 0.01 in 0.0 iph
04/29/2016 18:04 Dry 61.7F - 52F - - - - - - 0 mhos 0 - None None 0.01 in 0.0 iph
04/29/2016 18:00 Dry 61.9F - 51F - - - - - - 0 mhos 0 - None None 0.01 in 0.0 iph
04/29/2016 17:54 Dry 62.8F - 51F - - - - - - 0 mhos 0 - None None 0.01 in 0.0 iph
04/29/2016 17:45 Dry 61.7F - 52F - - - - - - 0 mhos 0 - None None 0.01 in 0.0 iph
04/29/2016 17:44 Dry 61.7F - 52F - - - - - - 0 mhos 0 - None None 0.01 in 0.0 iph
04/29/2016 17:34 Dry 60.8F - 52F - - - - - - 0 mhos 0 - None None 0.01 in 0.0 iph
04/29/2016 17:30 Dry 60.4F - 51F - - - - - - 0 mhos 0 - None None 0.01 in 0.0 iph
04/29/2016 17:24 Dry 60.4F - 51F - - - - - - 0 mhos 0 - None None 0.01 in 0.0 iph
04/29/2016 17:15 Dry 59.5F - 51F - - - - - - 0 mhos 0 - None None 0.01 in 0.0 iph
Date/Time
(MDT)
Sf
Temp Chem Water Layer Surface Precipitation
Sfc Pvt Sub Frz Factor Pct Dpth DpthThk IcePct Cond Salin FI Type Intens Accum Rate
04/29/2016 17:14 Dry 59.7F - 52F - - - - - - 0 mhos 0 - None None 0.01 in 0.0 iph
04/29/2016 17:04 Dry 59.9F - 52F - - - - - - 0 mhos 0 - None None 0.01 in 0.0 iph
04/29/2016 17:00 Dry 59.5F - 51F - - - - - - 0 mhos 0 - None None 0.01 in 0.0 iph
04/29/2016 16:54 Dry 59.0F - 51F - - - - - - 0 mhos 0 - None None 0.01 in 0.0 iph
04/29/2016 16:45 Dry 58.1F - 51F - - - - - - 0 mhos 0 - None None 0.01 in 0.0 iph
04/29/2016 16:44 Dry 58.3F - 51F - - - - - - 0 mhos 0 - None None 0.01 in 0.0 iph
04/29/2016 16:34 Dry 57.9F - 51F - - - - - - 0 mhos 0 - None None 0.01 in 0.0 iph
04/29/2016 16:30 Dry 58.1F - 51F - - - - - - 0 mhos 0 - None None 0.01 in 0.0 iph
04/29/2016 16:24 Dry 57.9F - 51F - - - - - - 0 mhos 0 - None None 0.01 in 0.0 iph
04/29/2016 16:15 Dry 57.9F - 51F - - - - - - 0 mhos 0 - None None 0.01 in 0.0 iph
04/29/2016 16:14 Dry 57.9F - 51F - - - - - - 0 mhos 0 - None None 0.01 in 0.0 iph
04/29/2016 16:04 Dry 58.3F - 51F - - - - - - 0 mhos 0 - None None 0.01 in 0.0 iph
04/29/2016 16:00 Dry 58.8F - 51F - - - - - - 0 mhos 0 - None None 0.01 in 0.0 iph
04/29/2016 15:53 Dry 59.0F - 51F - - - - - - 0 mhos 0 - None None 0.01 in 0.0 iph
04/29/2016 15:45 Dry 59.5F - 51F - - - - - - 0 mhos 0 - None None 0.01 in 0.0 iph
Date/Time
(MDT)
Sf
Temp Chem Water Layer Surface Precipitation
Sfc Pvt Sub Frz Factor Pct Dpth DpthThk IcePct Cond Salin FI Type Intens Accum Rate
04/29/2016 15:43 Dry 59.7F - 51F - - - - - - 0 mhos 0 - None None 0.01 in 0.0 iph
04/29/2016 15:33 Dry 60.1F - 51F - - - - - - 0 mhos 0 - None None 0.01 in 0.0 iph
04/29/2016 15:30 Dry 59.7F - 51F - - - - - - 0 mhos 0 - None None 0.01 in 0.0 iph
04/29/2016 15:23 Dry 59.4F - 51F - - - - - - 0 mhos 0 - None None 0.01 in 0.0 iph
04/29/2016 15:15 Dry 59.2F - 51F - - - - - - 0 mhos 0 - None None 0.01 in 0.0 iph
04/29/2016 15:13 Dry 59.0F - 51F - - - - - - 0 mhos 0 - None None 0.01 in 0.0 iph
04/29/2016 15:03 Dry 58.3F - 51F - - - - - - 0 mhos 0 - None None 0.01 in 0.0 iph
04/29/2016 15:00 Dry 58.3F - 51F - - - - - - 0 mhos 0 - None None 0.01 in 0.0 iph
04/29/2016 14:53 Dry 57.9F - 51F - - - - - - 0 mhos 0 - None None 0.01 in 0.0 iph
04/29/2016 14:45 Dry 57.2F - 51F - - - - - - 0 mhos 0 - None None 0.01 in 0.0 iph
04/29/2016 14:43 Dry 56.7F - 51F - - - - - - 0 mhos 0 - None None 0.01 in 0.0 iph
04/29/2016 14:33 Dry 54.5F - 51F - - - - - - 0 mhos 1 - None None 0.01 in 0.0 iph
04/29/2016 14:30 Wet 54.7F - 51F 32F 15 0% 0.20 in - 0% 0 mhos 1 - None None 0.01 in 0.0 iph
04/29/2016 14:23 Error 54.5F - 51F - - - - - - 0 mhos 2 - None None 0.01 in 0.0 iph
04/29/2016 14:15 Error 53.2F - 51F - - - - - - 0 mhos 6 - None None 0.01 in 0.0 iph
Date/Time
(MDT)
Sf
Temp Chem Water Layer Surface Precipitation
Sfc Pvt Sub Frz Factor Pct Dpth DpthThk IcePct Cond Salin FI Type Intens Accum Rate
04/29/2016 14:13 Error 53.4F - 51F - - - - - - 0 mhos 8 - None None 0.01 in 0.0 iph
04/29/2016 14:03 Error 53.4F - 51F - - - - - - 0 mhos 13 - None None 0.01 in 0.0 iph
04/29/2016 14:00 Error 52.9F - 51F - - - - - - 0 mhos 14 - None None 0.01 in 0.0 iph
04/29/2016 13:53 Error 51.6F - 51F - - - - - - 0 mhos 16 - None None 0.01 in 0.0 iph
04/29/2016 13:45 Error 51.6F - 51F - - - - - - 0 mhos 14 - Yes Slight 0.01 in 0.0 iph
04/29/2016 13:43 Error 51.6F - 51F - - - - - - 0 mhos 13 - Yes Moderate 0.01 in 0.0 iph
04/29/2016 13:33 Error 51.1F - 51F - - - - - - 0 mhos 7 - Yes Moderate 0.00 in 0.0 iph
04/29/2016 13:30 Error 50.9F - 51F - - - - - - 0 mhos 5 - Snow Slight 0.00 in 0.0 iph
04/29/2016 13:23 Error 50.9F - 51F - - - - - - 0 mhos 2 - Yes Moderate 0.00 in 0.0 iph
04/29/2016 13:15 Error 51.4F - 51F - - - - - - 0 mhos 2 - Yes Moderate 0.00 in 0.0 iph
04/29/2016 13:13 Error 50.9F - 51F - - - - - - 0 mhos 2 - Yes Moderate 0.00 in 0.0 iph
04/29/2016 13:03 Error 51.6F - 51F - - - - - - 0 mhos 1 - Yes Moderate 0.00 in 0.0 iph
04/29/2016 13:00 Error 51.1F - 52F - - - - - - 0 mhos 1 - Yes Moderate 0.00 in 0.0 iph
04/29/2016 12:53 Error 52.3F - 52F - - - - - - 0 mhos 1 - Yes Moderate 0.00 in 0.0 iph
04/29/2016 12:45 Wet 53.4F - 52F 32F 40 0% 0.70 in - 0% 0 mhos 1 - Snow Slight 0.00 in 0.0 iph
Date/Time
(MDT)
Sf
Temp Chem Water Layer Surface Precipitation
Sfc Pvt Sub Frz Factor Pct Dpth DpthThk IcePct Cond Salin FI Type Intens Accum Rate
04/29/2016 12:43 Dry 53.6F - 52F - - - - - - 0 mhos 0 - Snow Slight 0.00 in 0.0 iph
04/29/2016 12:33 Dry 55.2F - 52F - - - - - - 0 mhos 0 - Yes Slight 0.00 in 0.0 iph
04/29/2016 12:30 Dry 55.4F - 52F - - - - - - 0 mhos 0 - None None 0.00 in 0.0 iph
04/29/2016 12:23 Dry 57.0F - 52F - - - - - - 0 mhos 0 - None None 0.00 in 0.0 iph
04/29/2016 12:15 Dry 57.9F - 52F - - - - - - 0 mhos 0 - None None 0.00 in 0.0 iph
04/29/2016 12:13 Dry 57.9F - 52F - - - - - - 0 mhos 0 - None None 0.00 in 0.0 iph
04/29/2016 12:03 Dry 58.8F - 52F - - - - - - 0 mhos 0 - None None 0.00 in 0.0 iph
04/29/2016 12:00 Dry 59.4F - 52F - - - - - - 0 mhos 0 - None None 0.00 in 0.0 iph
04/29/2016 11:53 Dry 59.4F - 52F - - - - - - 0 mhos 0 - None None 0.00 in 0.0 iph
04/29/2016 11:45 Dry 60.3F - 52F - - - - - - 0 mhos 0 - None None 0.00 in 0.0 iph
04/29/2016 11:43 Dry 60.4F - 52F - - - - - - 0 mhos 0 - None None 0.00 in 0.0 iph
04/29/2016 11:33 Dry 60.6F - 52F - - - - - - 0 mhos 0 - None None 0.00 in 0.0 iph
04/29/2016 11:30 Dry 60.6F - 52F - - - - - - 0 mhos 0 - None None 0.00 in 0.0 iph
04/29/2016 11:23 Dry 60.3F - 52F - - - - - - 0 mhos 0 - None None 0.00 in 0.0 iph
04/29/2016 11:15 Dry 59.7F - 52F - - - - - - 0 mhos 0 - None None 0.00 in 0.0 iph
Date/Time
(MDT)
Sf
Temp Chem Water Layer Surface Precipitation
Sfc Pvt Sub Frz Factor Pct Dpth DpthThk IcePct Cond Salin FI Type Intens Accum Rate
04/29/2016 11:13 Dry 59.7F - 52F - - - - - - 0 mhos 0 - None None 0.00 in 0.0 iph
04/29/2016 11:03 Dry 59.7F - 52F - - - - - - 0 mhos 0 - None None 0.00 in 0.0 iph
04/29/2016 11:00 Dry 59.5F - 52F - - - - - - 0 mhos 0 - None None 0.00 in 0.0 iph
04/29/2016 10:53 Dry 59.0F - 52F - - - - - - 0 mhos 0 - None None 0.00 in 0.0 iph
04/29/2016 10:45 Dry 57.6F - 52F - - - - - - 0 mhos 0 - None None 0.00 in 0.0 iph
04/29/2016 10:43 Dry 57.0F - 52F - - - - - - 0 mhos 0 - None None 0.00 in 0.0 iph
04/29/2016 10:33 Dry 55.6F - 52F - - - - - - 0 mhos 0 - None None 0.00 in 0.0 iph
04/29/2016 10:30 Dry 55.4F - 52F - - - - - - 0 mhos 0 - None None 0.00 in 0.0 iph
04/29/2016 10:22 Dry 55.0F - 52F - - - - - - 0 mhos 0 - None None 0.00 in 0.0 iph
04/29/2016 10:15 Dry 54.5F - 52F - - - - - - 0 mhos 0 - None None 0.00 in 0.0 iph
04/29/2016 10:12 Dry 54.5F - 52F - - - - - - 0 mhos 0 - None None 0.00 in 0.0 iph
04/29/2016 10:02 Dry 54.7F - 52F - - - - - - 0 mhos 0 - None None 0.00 in 0.0 iph
04/29/2016 10:00 Dry 54.9F - 52F - - - - - - 0 mhos 0 - None None 0.00 in 0.0 iph
04/29/2016 09:52 Dry 55.0F - 52F - - - - - - 0 mhos 0 - None None 0.00 in 0.0 iph
04/29/2016 09:45 Dry 54.5F - 52F - - - - - - 0 mhos 0 - None None 0.00 in 0.0 iph
Date/Time
(MDT)
Sf
Temp Chem Water Layer Surface Precipitation
Sfc Pvt Sub Frz Factor Pct Dpth DpthThk IcePct Cond Salin FI Type Intens Accum Rate
04/29/2016 09:42 Dry 54.3F - 52F - - - - - - 0 mhos 0 - None None 0.00 in 0.0 iph
04/29/2016 09:32 Dry 54.1F - 52F - - - - - - 0 mhos 0 - None None 0.00 in 0.0 iph
04/29/2016 09:30 Dry 54.0F - 52F - - - - - - 0 mhos 0 - None None 0.00 in 0.0 iph
04/29/2016 09:22 Dry 53.6F - 52F - - - - - - 0 mhos 0 - None None 0.00 in 0.0 iph
04/29/2016 09:15 Dry 53.1F - 52F - - - - - - 0 mhos 0 - None None 0.00 in 0.0 iph
04/29/2016 09:12 Dry 52.9F - 52F - - - - - - 0 mhos 0 - None None 0.00 in 0.0 iph
04/29/2016 09:02 Dry 51.8F - 52F - - - - - - 0 mhos 0 - None None 0.00 in 0.0 iph
04/29/2016 09:00 Dry 51.8F - 52F - - - - - - 0 mhos 0 - None None 0.00 in 0.0 iph
04/29/2016 08:52 Dry 50.9F - 52F - - - - - - 0 mhos 0 - None None 0.00 in 0.0 iph
04/29/2016 08:45 Dry 49.6F - 52F - - - - - - 0 mhos 0 - None None 0.00 in 0.0 iph
04/29/2016 08:42 Dry 49.1F - 53F - - - - - - 0 mhos 0 - None None 0.00 in 0.0 iph
04/29/2016 08:32 Dry 47.8F - 53F - - - - - - 0 mhos 0 - None None 0.00 in 0.0 iph
04/29/2016 08:30 Dry 47.5F - 53F - - - - - - 0 mhos 0 - None None 0.00 in 0.0 iph
04/29/2016 08:22 Dry 46.4F - 53F - - - - - - 0 mhos 0 - None None 0.00 in 0.0 iph
04/29/2016 08:15 Dry 45.1F - 53F - - - - - - 0 mhos 0 - None None 0.00 in 0.0 iph
Date/Time
(MDT)
Sf
Temp Chem Water Layer Surface Precipitation
Sfc Pvt Sub Frz Factor Pct Dpth DpthThk IcePct Cond Salin FI Type Intens Accum Rate
04/29/2016 08:12 Dry 44.6F - 53F - - - - - - 0 mhos 0 - None None 0.00 in 0.0 iph
04/29/2016 08:02 Dry 43.5F - 53F - - - - - - 0 mhos 0 - None None 0.00 in 0.0 iph
04/29/2016 08:00 Dry 43.2F - 53F - - - - - - 0 mhos 0 - None None 0.00 in 0.0 iph
04/29/2016 07:52 Dry 42.4F - 53F - - - - - - 0 mhos 0 - None None 0.00 in 0.0 iph
04/29/2016 07:45 Dry 41.9F - 53F - - - - - - 0 mhos 0 - None None 0.00 in 0.0 iph
04/29/2016 07:42 Dry 41.7F - 53F - - - - - - 0 mhos 0 - None None 0.00 in 0.0 iph
04/29/2016 07:32 Dry 40.6F - 53F - - - - - - 0 mhos 0 - None None 0.00 in 0.0 iph
04/29/2016 07:30 Dry 40.6F - 53F - - - - - - 0 mhos 0 - None None 0.00 in 0.0 iph
04/29/2016 07:22 Dry 39.9F - 53F - - - - - - 0 mhos 0 - None None 0.00 in 0.0 iph
04/29/2016 07:15 Dry 39.6F - 53F - - - - - - 0 mhos 0 - None None 0.00 in 0.0 iph
04/29/2016 07:12 Dry 39.4F - 53F - - - - - - 0 mhos 0 - None None 0.00 in 0.0 iph
04/29/2016 07:02 Dry 39.2F - 53F - - - - - - 0 mhos 0 - None None 0.00 in 0.0 iph
04/29/2016 07:00 Dry 39.2F - 53F - - - - - - 0 mhos 0 - None None 0.00 in 0.0 iph
04/29/2016 06:52 Dry 38.7F - 53F - - - - - - 0 mhos 0 - None None 0.00 in 0.0 iph
04/29/2016 06:45 Dry 38.3F - 53F - - - - - - 0 mhos 0 - None None 0.00 in 0.0 iph
Date/Time
(MDT)
Sf
Temp Chem Water Layer Surface Precipitation
Sfc Pvt Sub Frz Factor Pct Dpth DpthThk IcePct Cond Salin FI Type Intens Accum Rate
04/29/2016 06:42 Dry 38.1F - 53F - - - - - - 0 mhos 0 - None None 0.00 in 0.0 iph
04/29/2016 06:32 Dry 37.9F - 53F - - - - - - 0 mhos 0 - None None 0.00 in 0.0 iph
04/29/2016 06:30 Dry 37.9F - 53F - - - - - - 0 mhos 0 - None None 0.00 in 0.0 iph
04/29/2016 06:22 Dry 37.8F - 53F - - - - - - 0 mhos 0 - None None 0.00 in 0.0 iph
04/29/2016 06:15 Dry 37.9F - 53F - - - - - - 0 mhos 0 - None None 0.00 in 0.0 iph
04/29/2016 06:12 Dry 37.8F - 53F - - - - - - 0 mhos 0 - None None 0.00 in 0.0 iph
04/29/2016 06:02 Dry 37.6F - 53F - - - - - - 0 mhos 0 - None None 0.00 in 0.0 iph
04/29/2016 06:00 Dry 37.6F - 53F - - - - - - 0 mhos 0 - None None 0.00 in 0.0 iph
04/29/2016 05:52 Dry 37.6F - 53F - - - - - - 0 mhos 0 - None None 0.00 in 0.0 iph
04/29/2016 05:45 Dry 37.6F - 53F - - - - - - 0 mhos 0 - None None 0.00 in 0.0 iph
04/29/2016 05:42 Dry 37.6F - 53F - - - - - - 0 mhos 0 - None None 0.00 in 0.0 iph
04/29/2016 05:32 Dry 37.4F - 53F - - - - - - 0 mhos 0 - None None 0.00 in 0.0 iph
04/29/2016 05:30 Dry 37.4F - 53F - - - - - - 0 mhos 0 - None None 0.00 in 0.0 iph
04/29/2016 05:22 Dry 37.4F - 53F - - - - - - 0 mhos 0 - None None 0.00 in 0.0 iph
Change End Date:

Copyright © 1998-2015 Vaisala, Inc.
All Rights Reserved
Send comments about the data to:
SCAN Web ® is a registered trademark of Vaisala, Inc.
SCAN Web Version 6.0